{"data":{"norad_id":65715,"epoch":"2026-09-20T14:25:23.730240Z","epoch_age_seconds":140997,"freshness":"FRESH","line1":"1 65715U 25214D   26263.60096910  .00001055  00000+0  15399-3 0  9998","line2":"2 65715  49.9818 225.8440 0012731 232.1208 127.8579 14.83569877 53670","mean_motion":14.83569877,"eccentricity":0.0012731,"inclination_deg":49.9818,"raan_deg":225.844,"arg_perigee_deg":232.1208,"mean_anomaly_deg":127.8579,"bstar":0.00015399,"rev_number":5367,"period_min":97.063173250181,"perigee_km":609.17148785597,"apogee_km":626.98525143015,"semimajor_km":6996.2153696431,"source":"CELESTRAK","updated_at":"2026-09-21T09:00:15.522522Z"}}